Hlavní strana
METAR-TAF:

METAR-TAF

Letiště :

Pikeville, Kentucky, Spojené státy americké

zeměpisná šířka: 37-33-42N, zeměpisná délka: 082-33-59W, výška: 449 m

Aktuální stav počasí

Zpráva byla vytvořena před 22 minutami, v 18:35 UTC
Bezvětří
Teplota 12°C
Vlhkost vzduchu 100%
Tlak 1017 hPa
Viditelnost: 11.3 km
Zataženo ve výšce 2000 ft
déšť

METAR: KPBX 181835Z AUTO 00000KT 7SM RA OVC020 12/12 A3002 RMK AO2 T01160116

Čas: 13:57 (18:57 UTC)


TAF: chybějící

Stav a předpovědi počasí z více než 4 000 letišť (zprávy METAR a TAF).

Červené a žluté tečky na mapě představují dostupné meteorologické stanice.

Když kurzor umístíte na tečku, zobrazí se název stanice.

Pak kliknutím zobrazíte stav a předpověď počasí.

Chcete-li změnit mapu, kliknutím na zelené tlačítko se znaménkem +mapu přiblížíte, kliknutím na zelené tlačítko se znaménkem – mapu oddálíte a kliknutím na zelené šipky přejdete na sousední mapy.


METAR-TAF: